Location: Boiro
(42.6475°N, 8.8834°W)
Time: 07:41:53
(UTC+01:00)

AO-109 - Visible Passes

Search period start: 28 January 2022 00:00
Search period end: 07 February 2022 00:00
Orbit: 479 x 515 km, 60.7° (Epoch: 27 January)

Date Brightness Start Highest point End Pass type
(mag) Time Alt. Az. Time Alt. Az. Time Alt. Az.
28 Jan ? 06:06:57 18° NE 06:06:57 18° NE 06:08:00 10° NE visible
28 Jan ? 07:41:34 20° NW 07:42:10 20° NW 07:45:05 10° NNE visible
29 Jan ? 07:20:44 21° NNW 07:20:44 21° NNW 07:23:09 10° NNE visible
30 Jan ? 06:59:46 17° N 06:59:46 17° N 07:01:13 10° NNE visible
31 Jan ? 06:38:40 13° N 06:38:40 13° N 06:39:16 10° NNE visible
